Location: Aalen
(48.8330°N, 10.1000°E)
Time: 07:49:46
(UTC+02:00)

UWE-3 - Pass Details

Date: 06 April 2023
Orbit: 576 x 670 km, 97.7° (Epoch: 29 May)

Event Time Altitude Azimuth Distance (km) Brightness Sun altitude
Rises 03:31:33 0° 23° (NNE) 2,953 ? -28.1°
Reaches altitude 10° 03:34:06 10° 36° (NE) 2,022 ? -27.8°
Maximum altitude 03:37:49 26° 93° (E) 1,217 ? -27.4°
Enters shadow 03:38:32 25° 110° (ESE) 1,250 ? -27.3°
